Theta_e
320 321 322 322 322 323 324 325 325 326 327 327 327 326 326 325 324 322 314 317 322 327 322 313 313 312 312 310 311 307 296 293 294 296 298 302 299 301 302 300 302 303 300 302 304
320 321 321 322 322 322 323 324 325 325 326 327 327 327 326 324 318 315 319 327 330 329 314 310 308 309 305 307 307 301 297 296 299 299 298 302 300 301 298 300 299 300 303 305 305
321 321 321 321 321 322 322 323 324 325 326 326 327 326 325 321 314 311 326 329 330 323 314 312 311 308 304 305 304 301 296 298 299 303 303 302 299 301 298 297 298 299 300 302 303
321 321 321 321 321 321 322 323 324 325 325 326 326 325 323 318 302 315 327 328 329 316 313 311 308 305 303 301 305 297 301 300 303 303 302 300 302 298 299 297 302 300 301 301 301
322 321 321 321 321 321 321 322 323 324 324 325 325 324 318 310 311 319 325 325 318 314 311 309 304 305 301 301 302 299 301 302 303 302 301 303 299 299 298 299 301 301 301 299 299
321 321 320 320 321 321 321 321 322 323 321 323 324 322 315 304 319 319 316 315 314 311 309 308 306 306 302 301 299 301 302 301 302 302 302 299 299 298 298 300 299 300 298 297 298
320 320 320 320 321 321 321 321 322 321 322 323 323 317 312 309 320 317 314 313 313 311 309 310 309 305 305 301 303 301 297 300 300 301 299 300 296 295 298 299 298 298 296 297 297
319 319 319 320 320 321 321 321 322 321 322 323 323 316 307 314 319 317 315 312 312 312 311 311 310 308 305 304 301 297 296 292 299 300 298 297 292 298 298 297 296 297 295 297 296
318 319 319 319 319 320 320 320 320 322 321 322 317 313 306 315 311 316 314 310 310 310 309 310 310 303 302 295 293 296 290 293 294 299 297 295 293 296 298 297 296 296 296 296 295
318 317 318 319 319 320 320 320 321 321 320 318 316 306 308 305 310 314 313 312 308 307 305 304 301 297 296 294 288 291 291 294 293 295 296 293 293 295 296 296 295 296 295 294 294
318 318 318 319 319 320 318 316 312 309 312 307 307 306 307 306 311 309 311 308 307 304 297 300 294 292 295 297 298 296 294 292 295 296 294 294 294 296 296 295 295 295 294 294 294
319 318 318 319 320 320 317 311 311 311 303 311 310 310 309 307 301 306 309 302 301 296 299 295 291 298 300 299 297 295 293 292 296 296 293 293 293 297 296 295 296 295 294 293 292
319 318 318 319 320 318 314 313 316 313 303 304 311 309 308 305 302 301 305 302 298 296 297 294 297 300 298 295 294 294 292 292 292 293 293 290 289 293 297 296 297 297 296 294 292
320 319 318 319 314 315 311 317 319 316 295 297 304 308 306 305 300 306 306 303 298 295 297 295 300 296 295 294 295 290 296 295 293 289 284 291 283 292 295 293 293 294 292 291 292
318 319 319 319 315 311 314 318 319 314 282 301 302 309 306 302 301 299 303 300 296 295 297 293 293 293 293 294 296 292 295 292 291 288 287 287 285 289 294 290 292 293 292 291 292
316 317 319 317 317 316 317 317 313 293 282 296 299 298 298 301 298 298 298 300 300 296 296 295 296 295 295 295 296 296 292 290 289 288 281 288 288 288 292 292 293 293 292 292 291
312 315 316 319 311 317 318 311 291 283 299 294 294 298 297 296 295 295 293 291 291 288 288 292 293 295 296 291 294 294 289 283 280 279 280 287 286 291 292 291 293 292 291 291 291
312 314 314 318 317 317 312 299 283 291 294 299 298 297 294 297 295 293 291 290 294 293 291 287 286 293 295 294 291 289 290 283 276 279 281 282 281 288 290 291 293 294 293 292 290
312 313 312 316 316 316 304 288 289 294 298 297 296 293 293 296 295 292 291 291 294 294 289 290 290 295 295 296 297 289 286 294 285 277 277 284 287 291 290 289 290 291 291 290 289
308 309 308 317 316 311 299 290 292 300 301 299 292 295 291 293 292 291 291 295 294 296 298 295 288 292 290 293 293 291 294 284 285 277 276 282 284 286 285 287 289 290 290 291 289
306 301 310 317 314 302 292 292 295 301 302 297 296 295 294 294 292 290 292 296 298 296 297 295 292 285 289 287 288 287 286 288 289 285 280 277 284 292 293 291 288 291 291 291 289
304 294 312 315 296 297 293 296 299 299 301 300 300 299 296 296 294 293 291 296 300 299 292 296 293 283 285 291 292 292 290 290 286 282 285 284 286 290 291 293 291 291 291 292 290
298 298 310 309 290 292 296 296 299 298 297 298 297 298 299 296 292 296 295 299 300 297 294 296 289 283 285 286 289 287 290 292 292 287 285 281 285 289 290 291 291 291 291 291 290
297 291 299 302 301 294 293 293 293 300 299 299 298 300 297 295 297 293 294 295 297 297 299 299 290 287 286 288 288 283 286 289 289 285 284 286 289 286 287 288 290 290 291 291 290
296 293 298 290 293 295 296 293 291 292 298 300 296 297 295 292 293 293 295 293 293 296 295 296 287 290 290 292 290 286 285 288 286 288 285 288 289 293 290 289 291 293 291 290 290
291 292 296 295 296 294 293 292 291 292 294 294 294 296 297 293 294 291 294 294 292 292 291 294 287 289 287 289 290 288 289 287 288 289 290 290 290 295 297 293 291 292 292 290 290
297 295 292 290 292 291 291 292 292 294 295 296 296 296 294 296 300 300 298 298 297 293 289 289 286 285 283 286 287 284 288 290 291 290 290 286 291 294 291 290 290 291 292 291 291
Wind_Speed
2 3 4 4 4 5 6 7 9 9 11 11 13 11 11 12 13 4 2 2 3 3 5 4 5 2 5 3 1 2 2 4 2 4 4 6 4 1 1 4 6 6 5 4 1
2 3 4 4 5 6 7 8 9 11 12 13 14 13 12 12 4 5 1 3 2 0 4 4 2 2 2 2 2 2 2 5 7 7 4 7 3 9 4 6 5 7 8 6 7
4 4 3 5 6 7 8 9 10 10 13 13 15 14 13 10 4 3 1 2 1 3 5 5 4 3 2 2 2 1 2 5 5 8 9 6 1 3 3 3 6 7 8 7 8
5 5 6 5 6 7 8 8 9 10 12 13 14 15 16 5 3 3 2 2 2 6 5 2 4 3 2 3 3 3 2 4 4 3 2 1 3 1 2 5 7 8 7 7 8
5 5 6 6 6 7 7 8 9 10 12 14 14 14 7 4 1 4 4 2 4 2 3 2 4 2 4 2 1 5 2 2 4 2 3 3 3 4 7 8 8 7 6 7 7
6 6 6 6 7 7 8 8 8 10 13 14 13 14 3 5 3 6 5 3 4 4 2 2 4 6 4 3 2 5 5 5 6 6 4 3 6 4 6 10 8 6 7 6 6
8 7 7 6 7 8 8 8 9 9 11 11 9 5 4 5 1 5 4 1 1 3 2 2 4 3 3 2 4 3 4 8 9 7 3 5 7 9 8 9 9 7 7 6 4
10 8 7 7 6 7 8 8 8 9 10 8 8 4 6 2 3 3 5 3 2 2 3 4 2 2 3 2 3 3 4 3 4 10 5 5 7 9 11 9 9 10 8 6 6
11 9 7 7 7 6 8 8 9 9 8 9 5 3 5 1 3 6 6 5 5 4 3 1 2 1 2 3 4 6 5 8 4 9 6 9 2 6 8 9 9 9 8 7 7
12 11 9 8 7 6 7 7 8 8 6 5 4 3 7 2 4 4 1 6 3 7 4 4 3 3 3 5 6 7 6 7 7 8 5 7 11 6 9 10 10 9 8 7 7
14 13 12 9 7 5 6 5 3 4 5 9 8 4 5 4 2 3 4 6 5 4 6 6 5 10 13 12 11 9 10 8 5 3 6 10 11 9 13 9 10 9 9 9 8
15 14 13 10 7 5 4 4 4 2 8 15 15 11 5 5 4 6 4 8 6 7 7 2 10 13 8 9 7 10 11 9 8 8 3 7 12 10 14 15 16 11 10 10 9
15 14 13 11 8 4 7 6 2 6 6 8 15 9 8 8 8 14 10 5 6 8 12 10 4 12 12 4 6 9 9 7 9 5 5 6 9 14 12 9 9 8 9 10 12
15 15 14 11 5 5 7 8 5 3 6 7 8 7 8 8 8 7 17 6 7 12 9 11 14 5 7 11 9 10 8 11 7 4 5 7 8 6 7 8 9 9 9 10 11
8 14 17 18 6 8 3 9 7 2 8 1 8 4 7 12 6 2 3 3 10 9 8 6 6 11 10 8 9 4 5 1 2 6 5 7 9 6 8 9 16 15 11 10 10
9 9 13 13 4 3 8 7 4 3 15 2 5 7 8 10 3 4 3 3 2 4 10 7 1 3 4 5 6 8 5 3 1 1 8 11 13 7 13 14 11 13 13 12 13
10 10 7 5 5 8 12 6 6 7 2 7 6 8 9 8 6 5 9 11 11 8 13 8 10 4 4 6 3 5 7 2 3 2 10 4 11 17 3 5 9 18 18 15 14
13 10 6 7 5 16 8 5 7 12 20 5 5 7 10 11 8 8 10 10 17 10 1 12 6 19 11 13 8 10 10 7 7 6 4 4 9 8 3 6 2 17 18 18 17
18 2 4 5 9 10 9 9 13 10 15 11 6 7 9 10 7 9 11 9 9 19 12 6 9 5 12 6 8 7 10 10 5 2 2 7 8 5 6 2 4 14 19 20 19
5 3 7 10 13 10 13 14 10 11 6 17 20 14 15 12 10 13 13 8 13 18 15 4 2 3 4 6 4 5 5 4 2 4 8 6 11 12 7 11 9 17 22 20 18
4 4 4 12 8 6 8 7 12 14 10 5 12 14 14 11 15 12 7 5 16 15 22 5 3 0 4 8 12 5 4 5 6 5 4 4 11 6 17 18 19 18 20 21 22
3 6 7 11 8 4 10 8 6 11 16 6 8 13 18 11 13 14 15 9 13 13 16 9 3 5 11 6 5 5 7 11 6 7 8 4 19 4 5 13 16 17 17 17 18
4 7 8 8 8 12 4 7 12 8 17 9 9 9 7 9 7 15 18 7 10 14 15 11 4 2 4 3 2 8 12 15 16 4 22 5 17 3 6 7 11 14 17 18 18
3 5 6 9 7 14 13 14 13 7 15 19 10 15 8 12 8 5 12 2 2 10 8 11 5 10 19 4 7 8 11 17 16 15 4 26 22 4 5 6 9 13 15 17 19
4 6 5 5 13 15 12 2 14 12 15 15 7 18 16 11 18 15 16 1 4 4 6 10 11 13 22 18 6 6 9 22 25 31 16 29 25 20 12 13 16 18 16 18 21
3 6 2 5 11 19 19 18 14 10 2 9 18 20 21 17 13 10 15 12 11 4 4 1 6 9 23 17 16 17 12 18 24 27 29 29 34 6 12 16 10 12 18 21 19
2 1 1 4 4 9 18 25 26 21 14 17 11 15 17 24 23 19 6 7 11 15 15 9 8 7 17 8 12 14 37 22 24 23 23 29 39 12 6 10 11 14 15 16 18
Wind_Direction
355 14 358 359 6 2 359 355 354 354 348 349 344 343 333 330 303 215 338 25 1 322 320 286 252 303 261 124 310 280 321 270 238 302 111 115 157 80 22 119 58 40 63 91 73
314 331 342 344 347 354 354 350 353 349 346 346 342 337 331 333 292 279 95 51 19 352 255 246 166 253 162 102 335 327 340 3 4 34 30 127 323 147 182 143 107 104 97 81 56
286 301 319 332 338 347 350 349 346 347 343 342 337 331 328 321 273 75 74 92 140 276 280 311 317 292 280 357 136 94 274 10 60 44 352 110 288 57 270 236 36 113 107 86 83
269 282 304 323 329 336 341 341 340 340 341 336 334 328 321 259 337 88 130 134 210 288 252 200 248 254 293 206 94 285 103 355 46 66 338 81 31 249 24 88 81 78 96 98 89
264 279 293 306 313 320 326 331 336 338 341 336 332 332 331 253 46 139 151 157 225 241 266 318 301 337 264 44 117 230 148 66 94 124 265 56 271 258 131 120 101 105 101 98 89
251 270 284 294 302 309 317 324 331 342 335 329 329 320 255 260 112 134 120 150 257 251 167 261 355 13 298 331 281 21 344 264 177 207 207 220 250 103 127 134 135 152 126 100 91
243 250 269 284 295 304 310 317 324 331 323 324 332 314 268 255 109 127 172 29 20 303 216 64 325 260 18 221 80 328 302 249 219 204 247 161 266 217 129 146 156 171 143 133 117
251 239 253 271 285 300 305 309 313 315 313 311 318 288 262 13 10 182 164 123 157 100 358 51 284 339 333 95 219 241 216 272 358 150 158 166 262 161 145 166 177 184 161 163 137
235 239 242 260 277 289 297 301 293 298 293 293 274 240 259 200 193 190 196 149 114 99 45 141 258 240 147 215 260 199 255 222 179 181 133 186 270 165 161 185 203 172 181 173 143
228 224 234 245 262 279 288 275 288 299 240 248 268 311 178 176 113 148 208 146 153 143 131 184 196 200 207 191 212 217 210 248 243 206 199 199 258 177 191 202 212 180 176 174 180
218 219 224 227 240 251 295 249 236 201 235 206 186 249 118 81 119 202 190 160 157 211 194 202 205 207 212 214 247 283 297 290 278 139 188 228 247 210 193 206 210 198 180 179 170
217 213 215 211 205 204 267 248 70 332 295 228 257 242 137 184 134 175 186 175 185 201 199 116 232 235 228 242 234 238 259 261 283 135 172 272 266 265 178 206 203 188 186 169 133
219 212 209 195 178 176 221 222 56 337 257 237 208 212 172 170 205 177 182 202 197 206 198 202 192 212 229 220 232 245 237 240 241 152 223 286 268 255 247 187 189 197 174 159 159
219 206 200 165 167 163 217 233 272 346 271 239 193 229 146 154 237 153 193 170 192 213 212 232 240 216 208 216 189 241 217 232 258 299 243 150 281 234 255 183 183 188 184 163 163
296 224 193 166 150 188 177 167 176 211 279 19 116 355 145 175 128 62 2 89 195 188 178 210 190 180 198 186 179 212 44 53 202 254 306 263 278 241 227 206 210 198 184 169 158
305 271 227 192 220 302 114 125 140 146 232 187 118 142 147 220 91 104 155 52 350 265 244 230 28 208 205 45 192 122 83 75 58 200 256 216 222 230 217 217 212 188 179 171 158
324 282 210 157 210 151 125 141 163 201 262 190 168 166 197 172 149 171 178 186 179 177 222 200 230 175 150 99 16 171 132 231 288 201 238 165 220 245 325 153 189 183 180 171 161
312 274 223 220 147 154 155 175 196 210 215 86 141 174 192 149 189 195 173 209 226 239 96 197 227 182 177 206 166 186 184 164 223 214 277 332 240 249 9 39 215 174 170 165 167
320 210 224 193 170 177 178 202 200 199 194 212 140 192 202 170 156 175 215 222 196 207 196 205 221 108 157 182 176 188 214 231 349 97 6 218 260 257 163 176 152 161 168 173 171
303 225 224 164 167 201 207 206 236 214 293 205 208 198 185 180 187 187 183 201 223 189 216 239 240 355 68 75 338 168 166 112 180 212 235 259 251 240 224 213 199 180 182 176 171
242 253 191 151 145 220 233 216 238 249 232 189 248 237 216 185 190 192 221 228 193 179 192 171 153 92 115 196 178 141 207 219 168 178 224 294 256 215 205 197 193 193 186 180 177
245 232 143 141 187 216 228 197 221 210 245 238 238 240 239 227 208 223 212 212 185 164 188 185 128 184 209 207 229 224 186 189 181 226 234 247 264 6 9 182 178 187 187 183 182
239 231 170 162 213 218 208 246 228 215 214 201 232 245 231 246 241 229 240 239 175 166 166 164 197 209 294 124 23 208 213 210 226 78 231 176 260 360 21 140 181 180 181 180 177
268 224 196 202 233 215 219 234 231 213 239 224 223 234 232 245 218 248 222 163 245 173 146 116 172 207 227 190 133 187 203 208 201 221 194 228 251 219 212 192 179 189 187 181 182
212 243 201 200 215 221 201 199 219 222 216 204 237 232 210 228 232 227 238 190 355 127 162 162 219 220 246 257 238 192 197 209 210 224 208 248 239 242 205 201 203 195 180 185 188
257 233 273 256 207 212 217 222 225 236 255 207 225 220 226 227 213 223 226 215 203 181 154 140 240 204 252 239 247 262 234 221 220 229 235 248 255 186 233 200 185 185 185 192 191
151 219 217 292 254 249 215 220 226 228 237 235 270 247 228 229 229 232 261 226 220 193 191 189 181 183 250 167 233 254 234 229 231 230 225 237 247 217 207 182 187 189 186 193 193